Tracking 18852 objects as of 24-Nov-2017
HD Live streaming from Space Station
objects crossing your sky now

SL-12 R/B(2)

Track SL-12 R/B(2) now!


NORAD ID: 27404
Int'l Code: 2002-016B
Perigee: 3,374.2 km
Apogee: 36,016.3 km
Inclination: 24.3 °
Period: 698.0 minutes
Semi major axis: 26066 km
RCS: 19.7997 m2 (large)
Launch date: March 30, 2002
Source: Commonwealth of Independent States (former USSR) (CIS)
Launch site: TYURATAM MISSILE AND SPACE COMPLEX (TTMTR)

Note: This is a ROCKET BODY
aabbcc
Your satellite tracking list
Your tracking list is empty




NASA's NSSDC Master Catalog

Two Line Element Set (TLE):
1 27404U 02016B   17324.12999113 -.00000406  00000-0  00000+0 0  9998
2 27404  24.2518 163.1927 6261362 291.5015  14.9412  2.06293433117887
Source of the keplerian elements: AFSPC